Weather History for Miles City, MT

Change the Weather History Date:

Saturday, July 20, 2013

  Actual Average Record
Temperature  
Mean Temperature 77 °F 75 °F  
Max Temperature 92 °F 90 °F 109 °F (1960)
Min Temperature 61 °F 60 °F 47 °F (1972)
Degree Days  
Heating Degree Days 0 0  
Month to date heating degree days 0 10  
Since 1 June heating degree days 59 99  
Since 1 July heating degree days 0 10  
Cooling Degree Days 12 10  
Month to date cooling degree days 237 173  
Year to date cooling degree days 343 300  
Since 1 June cooling degree days 330 280  
Growing Degree Days 26 (Base 50)    
Moisture  
Dew Point 52 °F    
Average Humidity 53    
Maximum Humidity 84    
Minimum Humidity 21    
Precipitation  
Precipitation 0.00 in 0.05 in 0.66 in (1969)
Month to date precipitation 0.51 1.10  
Year to date precipitation 11.54 8.31  
Sea Level Pressure  
Sea Level Pressure 29.86 in    
Wind  
Wind Speed 8 mph (NNE)    
Max Wind Speed 22 mph    
Max Gust Speed 25 mph    
Visibility 10 miles    
Events      
T = Trace of Precipitation, MM = Missing Value Source: NWS Daily Summary

Daily Weather History Graph

Daily Weather History Graph

Search for Another Location

Airport:

Trip Planner

Search our weather history database for the weather conditions in past years. The results will help you decide how hot, cold, wet, or windy it might be!

Date:

Astronomy

Jul. 20, 2013 Rise Set
Actual Time 5:31 AM MDT 8:47 PM MDT
Civil Twilight 4:54 AM MDT 9:24 PM MDT
Nautical Twilight 4:06 AM MDT 10:12 PM MDT
Astronomical Twilight 3:06 AM MDT 11:11 PM MDT
Moon 6:53 PM MDT 3:14 AM MDT
Length of Visible Light 16h 29m
Length of Day
15h 16m
Waxing Gibbous, 94% of the Moon is Illuminated
Jul 20
Waxing Gibbous
Jul 22
Full
Jul 29
Last Quarter
Aug 6
New
Aug 14
First Quarter

Hourly Weather History & Observations

Time (MDT) Temp. Heat Index Dew Point Humidity Pressure Visibility Wind Dir Wind Speed Gust Speed Precip Events Conditions
12:53 AM 71.1 °F - 50.0 °F 47% 29.88 in 10.0 mi Calm Calm - N/A   Clear
1:53 AM 69.1 °F - 48.9 °F 49% 29.90 in 10.0 mi NNE 16.1 mph - N/A   Partly Cloudy
2:53 AM 66.0 °F - 54.0 °F 65% 29.89 in 10.0 mi NNE 13.8 mph - N/A   Clear
3:53 AM 64.0 °F - 54.0 °F 70% 29.89 in 10.0 mi NNE 12.7 mph - N/A   Clear
4:53 AM 61.0 °F - 54.0 °F 78% 29.88 in 10.0 mi NNE 11.5 mph - N/A   Clear
5:53 AM 61.0 °F - 55.0 °F 81% 29.90 in 10.0 mi NNE 11.5 mph - N/A   Clear
6:53 AM 62.1 °F - 55.9 °F 80% 29.90 in 10.0 mi NNE 11.5 mph - N/A   Clear
7:53 AM 66.0 °F - 55.9 °F 70% 29.91 in 10.0 mi North 10.4 mph - N/A   Clear
8:53 AM 71.1 °F - 55.9 °F 59% 29.91 in 10.0 mi NNE 5.8 mph - N/A   Clear
9:53 AM 75.0 °F - 55.9 °F 51% 29.91 in 10.0 mi NNE 6.9 mph - N/A   Clear
10:53 AM 78.1 °F - 55.9 °F 46% 29.90 in 10.0 mi Variable 6.9 mph - N/A   Clear
11:53 AM 82.0 °F 81.4 °F 55.0 °F 39% 29.89 in 10.0 mi NNE 5.8 mph - N/A   Clear
12:53 PM 82.9 °F 82.0 °F 55.0 °F 38% 29.88 in 10.0 mi Calm Calm - N/A   Clear
1:53 PM 84.9 °F 83.3 °F 54.0 °F 34% 29.86 in 10.0 mi SSW 6.9 mph - N/A   Clear
2:53 PM 88.0 °F - 51.1 °F 28% 29.85 in 10.0 mi Variable 4.6 mph 17.3 mph N/A   Clear
3:53 PM 89.1 °F - 51.1 °F 27% 29.83 in 10.0 mi Variable 3.5 mph - N/A   Partly Cloudy
4:53 PM 90.0 °F - 46.0 °F 22% 29.81 in 10.0 mi NNW 6.9 mph - N/A   Clear
5:53 PM 89.1 °F - 45.0 °F 22% 29.80 in 10.0 mi Calm Calm - N/A   Clear
6:53 PM 89.1 °F - 45.0 °F 22% 29.79 in 10.0 mi NNE 6.9 mph - N/A   Clear
7:53 PM 86.0 °F - 45.0 °F 24% 29.78 in 10.0 mi North 6.9 mph - N/A   Clear
8:53 PM 79.0 °F - 48.9 °F 35% 29.79 in 10.0 mi NE 9.2 mph - N/A   Clear
9:53 PM 77.0 °F - 52.0 °F 42% 29.80 in 10.0 mi ENE 8.1 mph - N/A   Clear
10:53 PM 77.0 °F - 53.1 °F 43% 29.80 in 10.0 mi Variable 4.6 mph - N/A   Clear
11:53 PM 75.0 °F - 55.9 °F 51% 29.79 in 10.0 mi SSE 10.4 mph - N/A   Clear